Station BFTN7 - 8656483 - Beaufort, NC Image indicating link to RSS feed of recent meteorological observations for station BFTN7


Conditions at BFTN7 as of
(6:18 am EDT)
1018 GMT on 04/14/2024:
     

Click on the graph icon in the table below to see a time series plot of the last five days of that observation.

5-day plot - Wind Direction Wind Direction (WDIR): NW ( 320 deg true )
5-day plot - Wind Speed Wind Speed (WSPD): 2.9 kts
5-day plot - Wind Gust Wind Gust (GST): 5.1 kts
5-day plot - Atmospheric Pressure Atmospheric Pressure (PRES):30.09 in
5-day plot - Air Temperature Air Temperature (ATMP): 55.8 °F
5-day plot - Water Temperature Water Temperature (WTMP): 63.1 °F
5-day plot - Wind Speed at 10 Meters Wind Speed at 10 meters (WSPD10M): 3.9 kts
5-day plot - Wind Speed at 20 Meters Wind Speed at 20 meters (WSPD20M): 3.9 kts
5-day plot -  Wind Speed, Wind Gust and Atmospheric Pressure Combined plot of Wind Speed, Gust, and Air Pressure
NOS Water Level Observation Network Water Level
Previous observations
TIME
(EDT)
5-day plot - Wind Direction
WDIR
 
5-day plot - Wind Speed
WSPD
kts
5-day plot - Wind Gust
GST
kts
5-day plot - Wave Height
WVHT
ft
5-day plot - Dominant Wave Period
DPD
sec
5-day plot - Average Wave Period
APD
sec
5-day plot - Mean Wave Direction
MWD
 
5-day plot - Atmospheric Pressure
PRES
in
5-day plot - Pressure Tendency
PTDY
in
5-day plot - Air Temperature
ATMP
°F
5-day plot - Water Temperature
WTMP
°F
5-day plot - Dew Point
DEWP
°F
5-day plot - Salinity
SAL
psu
5-day plot - Visibility
VIS
nmi
5-day plot - Tide (above MLLW)
TIDE
ft
2024-04-14 06:12 am NW 2.9 4.1----30.09- 55.9 63.1----
2024-04-14 06:06 amNNW 2.9 4.1----30.09- 56.3 63.0----
2024-04-14 06:00 amNNW 4.1 5.1------ 56.7-----
2024-04-14 05:54 amNNW 5.1 6.0------ 57.0-----
2024-04-14 05:48 amNNW 4.1 5.1------ 57.0 63.0----
2024-04-14 05:42 amNNW 5.1 6.0------ 57.0 63.1----
2024-04-14 05:36 amNNW 4.1 5.1------ 57.0 63.1----
2024-04-14 05:30 am N 2.9 4.1----30.07-- 63.1----
2024-04-14 05:24 am N 1.9 4.1----30.07-- 63.1----
2024-04-14 05:18 am N 1.9 4.1----30.07- 56.5 63.1----
2024-04-14 05:12 am NW 2.9 4.1----30.07- 57.0 63.1----
2024-04-14 05:06 am NW 2.9 4.1----30.07- 56.8 63.1----
2024-04-14 05:00 am NW 2.9 5.1----30.06+0.02 57.2 63.1----
2024-04-14 04:54 amNNW 4.1 5.1----30.06- 57.4 63.1----
2024-04-14 04:48 amNNW 1.9 5.1----30.06- 57.6 63.0----
2024-04-14 04:42 am NW 1.9 6.0----30.06- 57.6 63.0----
2024-04-14 04:36 am NW 1.9 5.1----30.06- 57.6 63.0----
2024-04-14 04:30 am NW 2.9 6.0----30.06- 57.7 63.0----
2024-04-14 04:24 amNNW 2.9 4.1----30.06- 57.9 63.0----
2024-04-14 04:18 am N 1.9 5.1----30.06- 58.5 63.0----
2024-04-14 04:12 am N 1.0 5.1----30.06- 59.0 63.0----
2024-04-14 04:06 am NW 4.1 6.0----30.06- 59.4 63.0----
2024-04-14 04:00 am NW 2.9 6.0----30.06+0.00 59.5 63.1----
2024-04-14 03:54 am NW 1.9 6.0----30.06- 59.9 63.1----
2024-04-14 03:48 am NW 2.9 5.1----30.06- 60.1 63.1----
2024-04-14 03:42 amWNW 2.9 6.0----30.05- 60.6 63.1----
2024-04-14 03:36 amWNW 4.1 8.0----30.05- 61.2 63.1----
2024-04-14 03:30 amWNW 5.1 8.0----30.05- 61.5 63.3----
2024-04-14 03:24 amWNW 5.1 7.0----30.05- 61.5 63.3----
2024-04-14 03:18 amWNW 5.1 7.0----30.05- 61.0 63.3----
2024-04-14 03:12 am W 4.1 6.0----30.05- 61.0 63.3----
2024-04-14 03:06 am W 4.1 6.0----30.05- 61.0 63.5----
2024-04-14 03:00 am W 5.1 7.0----30.05+0.00 61.3 63.5----
2024-04-14 02:54 am W 4.1 6.0----30.05- 61.3 63.5----
2024-04-14 02:48 am W 5.1 7.0----30.05- 61.3 63.5----
2024-04-14 02:42 am W 5.1 8.0----30.05- 61.3 63.5----
2024-04-14 02:36 am W 4.1 6.0----30.05- 61.3 63.5----
2024-04-14 02:30 am W 5.1 7.0----30.05- 61.3 63.5----
2024-04-14 02:24 am W 5.1 8.0----30.05- 61.2 63.5----
2024-04-14 02:18 am W 2.9 6.0----30.05- 60.8 63.5----
2024-04-14 02:12 amWSW 4.1 5.1----30.05- 60.8 63.5----
2024-04-14 02:06 am W 4.1 6.0----30.05- 60.8 63.3----
2024-04-14 02:00 amWSW 2.9 8.0----30.05+0.00 61.0 63.1----
2024-04-14 01:54 am W 4.1 6.0----30.05- 61.0 63.0----
2024-04-14 01:48 am W 2.9 6.0----30.05- 61.2 63.0----
2024-04-14 01:42 am W 4.1 6.0----30.05- 61.2 63.1----
2024-04-14 01:36 amWSW 4.1 6.0----30.05- 61.2 63.1----
2024-04-14 01:30 amWSW 2.9 5.1----30.05- 61.3 63.1----
2024-04-14 01:24 amWSW 2.9 6.0----30.05- 61.5 63.1----
2024-04-14 01:18 amWSW 4.1 6.0----30.05- 61.9 63.1----
2024-04-14 01:12 amWSW 4.1 7.0----30.05- 62.1 63.1----
2024-04-14 01:06 amWSW 4.1 7.0----30.05- 62.2 63.1----
2024-04-14 01:00 amWSW 5.1 7.0----30.05+0.01 62.2 63.1----
2024-04-14 12:54 amWSW 4.1 8.0----30.05- 62.4 63.1----
2024-04-14 12:48 amWSW 5.1 8.0----30.05- 62.2 63.1----
2024-04-14 12:42 amWSW 5.1 8.0----30.05- 62.2 63.1----
2024-04-14 12:36 am W 5.1 7.0----30.05- 62.2 63.1----
2024-04-14 12:30 am W 5.1 8.0----30.05- 62.2 63.1----
2024-04-14 12:24 amWSW 5.1 8.0----30.05- 62.4 63.1----
2024-04-14 12:18 amWSW 4.1 8.9----30.05- 62.8 63.1----
2024-04-14 12:12 am W 6.0 9.9----30.05- 63.1 63.1----
2024-04-14 12:06 am W 6.0 9.9----30.04- 63.5 63.1----
2024-04-14 12:00 am W 6.0 8.9----30.04+0.02 63.3 63.1----
2024-04-13 11:54 pm W 6.0 8.9----30.04- 63.5 63.1----
2024-04-13 11:48 pm W 5.1 8.0----30.04- 63.1 63.1----
2024-04-13 11:42 pm W 5.1 8.0----30.04- 63.0 63.1----
2024-04-13 11:36 pmWSW 4.1 6.0----30.05- 62.6 63.3----
2024-04-13 11:30 pmWSW 4.1 8.9----30.04- 63.0 63.3----
2024-04-13 11:24 pm W 5.1 8.0----30.04- 63.1 63.3----
2024-04-13 11:18 pm W 6.0 9.9----30.04- 63.3 63.3----
2024-04-13 11:12 pmWSW 5.1 8.0----30.04- 63.7 63.3----
2024-04-13 11:06 pm W 5.1 8.0----30.04- 63.5 63.5----
2024-04-13 11:00 pm W 4.1 7.0----30.04+0.05 63.1 63.5----
2024-04-13 10:54 pmWSW 4.1 7.0----30.04- 63.1 63.7----
2024-04-13 10:48 pmWSW 4.1 7.0----30.04- 63.3 63.7----
2024-04-13 10:42 pm W 4.1 7.0----30.04- 63.5 63.9----
2024-04-13 10:36 pmWSW 4.1 6.0----30.04- 63.1 63.9----
2024-04-13 10:30 pm W 4.1 6.0----30.04- 63.3 63.9----
2024-04-13 10:24 pm W 5.1 7.0----30.04- 63.7 64.0----
2024-04-13 10:18 pm W 4.1 6.0----30.04- 63.5 64.2----
2024-04-13 10:12 pm W 4.1 6.0----30.04- 63.0 64.2----
2024-04-13 10:06 pm W 4.1 6.0----30.04- 63.1 64.2----
2024-04-13 10:00 pm W 4.1 6.0----30.04+0.07 63.1 64.4----
2024-04-13 09:54 pmWSW 2.9 5.1----30.04- 62.8 64.4----
2024-04-13 09:48 pmWSW 2.9 5.1----30.04- 63.3 64.4----
2024-04-13 09:42 pm W 4.1 5.1----30.03- 63.9 64.4----
2024-04-13 09:36 pm W 4.1 7.0----30.03- 64.2 64.4----
2024-04-13 09:30 pm W 5.1 8.0----30.03- 64.2 64.2----
2024-04-13 09:24 pm W 4.1 6.0----30.03- 62.8 64.2----
2024-04-13 09:18 pmWSW 2.9 5.1----30.03- 63.1 64.2----
2024-04-13 09:12 pmWSW 2.9 5.1----30.03- 63.3 64.0----
2024-04-13 09:06 pm SW 2.9 5.1----30.03- 63.9 64.0----
2024-04-13 09:00 pm SW 1.9 4.1----30.02+0.06 64.4 64.0----
2024-04-13 08:54 pmWSW 1.9 4.1----30.02- 64.9 64.0----
2024-04-13 08:48 pm W 2.9 5.1----30.02- 65.3 64.0----
2024-04-13 08:42 pm W 2.9 5.1----30.01- 65.1 64.0----
2024-04-13 08:36 pm W 2.9 5.1----30.01- 65.3 64.0----
2024-04-13 08:30 pm W 2.9 6.0----30.01- 65.5 64.0----
2024-04-13 08:24 pmWSW 1.9 4.1----30.01- 65.7 64.0----
2024-04-13 08:18 pm-------30.01- 66.2 64.0----
2024-04-13 08:12 pm-------30.00- 66.6 64.2----
2024-04-13 08:06 pm-------30.00- 66.9 64.2----
2024-04-13 08:00 pm-------30.00+0.04 67.1 64.2----
2024-04-13 07:54 pm-------29.99- 67.6 64.0----
2024-04-13 07:48 pmWNW 4.1 6.0----29.99- 67.5 64.2----
2024-04-13 07:42 pmWNW 5.1 7.0----29.99- 67.8 64.2----
2024-04-13 07:36 pmWNW 4.1 6.0----29.98- 67.6 64.4----
2024-04-13 07:30 pmWNW 5.1 9.9----29.98- 68.2 64.6----
2024-04-13 07:24 pmWNW 5.1 8.9----29.98- 68.5 64.8----
2024-04-13 07:00 pm NW 6.0 9.9----29.97+0.01 69.8 65.3----
2024-04-13 06:54 pmWNW 7.0 11.1----29.97- 70.0 65.3----
2024-04-13 06:48 pm NW 7.0 11.1----29.97- 70.3-----
2024-04-13 06:42 pm NW 5.1 9.9----29.97- 70.3-----
2024-04-13 06:36 pm NW 8.0 14.0----29.97- 70.3-----
2024-04-13 06:30 pm NW 8.0 15.9----29.97- 70.3 65.5----
2024-04-13 06:24 pm NW 6.0 13.0----29.97- 70.7 65.5----
2024-04-13 06:18 pm NW 6.0 17.1----29.97- 70.7 65.7----
2024-04-13 06:12 pmNNW 11.1 17.1----29.97- 70.3 65.7----
2024-04-13 06:06 pm NW 8.0 14.0----29.97- 70.3 65.7----
2024-04-13 06:00 pm NW 9.9 18.1----29.96-0.01 70.3 65.7----
2024-04-13 05:54 pm NW 7.0 14.0----29.96- 70.5 65.7----
2024-04-13 05:48 pm NW 8.0 15.9----29.96- 70.5 65.7----
2024-04-13 05:42 pm NW 9.9 15.9----29.96- 70.7 65.7----
2024-04-13 05:36 pm NW 9.9 17.1----29.96- 70.9 65.7----
2024-04-13 05:30 pm NW 8.9 19.0----29.96- 70.9 65.7----
2024-04-13 05:24 pm NW 7.0 13.0----29.96- 71.4 65.7----
2024-04-13 05:18 pm NW 7.0 15.9----29.96- 71.4 65.7----
2024-04-13 05:12 pm NW 8.9 20.0----29.96- 71.2 65.7----
2024-04-13 05:06 pm NW 11.1 19.0----29.96- 71.1 65.7----
2024-04-13 05:00 pm NW 11.1 18.1----29.96-0.03 71.1 65.5----
2024-04-13 04:54 pmNNW 12.0 20.0----29.96- 71.1 65.5----
2024-04-13 04:48 pm--------- 71.4 65.3----
2024-04-13 04:42 pm--------- 71.1 65.3----
2024-04-13 04:36 pm--------- 71.1 65.3----
2024-04-13 04:30 pm NW 8.9 15.0----29.95-- 65.3----
2024-04-13 04:24 pm NW 11.1 18.1----29.96-- 65.1----
2024-04-13 04:18 pmWNW 9.9 15.9----29.96- 70.9 65.1----
2024-04-13 04:12 pmWNW 11.1 20.0----29.96- 70.5 65.1----
2024-04-13 04:06 pmWNW 9.9 18.1----29.96- 70.7 64.9----
2024-04-13 04:00 pm NW 11.1 18.1----29.96-0.04 70.7 64.9----
2024-04-13 03:54 pm NW 6.0 12.0----29.96- 71.2 64.9----
2024-04-13 03:48 pmWNW 8.9 20.0----29.96- 70.5 64.8----
2024-04-13 03:42 pmWNW 12.0 17.1----29.96- 70.3 64.8----
2024-04-13 03:36 pm NW 6.0 14.0----29.96- 70.7 64.8----
2024-04-13 03:30 pm NW 8.9 15.9----29.96- 70.3 64.8----
2024-04-13 03:24 pm NW 8.0 15.0----29.97- 70.2 64.8----
2024-04-13 03:18 pm NW 8.9 17.1----29.97- 70.0 64.8----
2024-04-13 03:12 pm NW 9.9 14.0----29.97- 69.8 64.8----
2024-04-13 03:06 pm NW 8.9 14.0----29.97- 69.6 64.8----
2024-04-13 03:00 pm NW 9.9 18.1----29.97-0.04 69.6 64.8----
2024-04-13 02:54 pmWNW 9.9 15.9----29.97- 68.5 64.8----
2024-04-13 02:48 pm NW 8.9 17.1----29.97-- 64.8----
2024-04-13 02:42 pmWNW 8.0 15.0----29.98-- 64.6----
2024-04-13 02:36 pm NW 9.9 15.9----29.98-- 64.6----
2024-04-13 02:30 pmWNW 9.9 17.1----29.98- 68.7 64.4----
2024-04-13 02:24 pmNNW 8.0 15.9----29.98- 69.4 64.4----
2024-04-13 02:18 pm-------29.98-- 64.2----
2024-04-13 02:12 pm-------29.98-- 64.2----
2024-04-13 02:06 pm-------29.99-- 64.2----
2024-04-13 02:00 pm NW 7.0 14.0----29.99-0.04 69.1 64.0----
2024-04-13 01:54 pmWNW 8.9 15.0----29.99- 68.2 64.0----
2024-04-13 01:48 pm NW 8.9 17.1----29.99-- 63.9----
2024-04-13 01:42 pmWNW 11.1 18.1----29.99-- 63.9----
2024-04-13 01:36 pm NW 8.9 18.1----29.99-- 63.9----
2024-04-13 01:30 pm NW 8.9 19.0----29.99- 68.2 64.0----
2024-04-13 01:24 pmWNW 9.9 19.0----29.99- 67.8 64.0----
2024-04-13 01:18 pmWNW 12.0 15.9----29.99- 67.3 64.0----
2024-04-13 01:12 pmWNW 13.0 20.0----29.99- 67.1 63.9----
2024-04-13 01:06 pmWNW 12.0 18.1----29.99- 67.6 63.7----
2024-04-13 01:00 pmWNW 12.0 18.1----30.00-0.03 67.1 63.3----
2024-04-13 12:54 pm NW 8.0 17.1----29.99- 67.6 63.3----
2024-04-13 12:48 pmWNW 11.1 18.1----30.00- 66.6 63.3----
2024-04-13 12:42 pm NW 8.9 17.1----30.00- 66.9 63.1----
2024-04-13 12:36 pm NW 9.9 18.1----30.00- 66.4 62.8----
2024-04-13 12:30 pm NW 8.9 18.1----30.00-- 62.6----
2024-04-13 12:24 pmWNW 15.9 20.0----30.00-- 62.6----
2024-04-13 12:18 pm NW 8.0 18.1----30.00-- 62.6----
2024-04-13 12:12 pm NW 9.9 19.0----30.00-- 62.6----
2024-04-13 12:06 pm NW 8.0 17.1----30.01-- 62.8----
2024-04-13 12:00 pm NW 7.0 15.9----30.01-0.01 65.8 62.8----
2024-04-13 11:54 am NW 8.9 15.9----30.01- 65.1 62.8----
2024-04-13 11:48 am-------30.01-- 62.8----
2024-04-13 11:42 am-------30.01-- 63.0----
2024-04-13 11:36 am-------30.02-- 63.0----
2024-04-13 11:30 am NW 5.1 14.0----30.02- 64.4 63.0----
2024-04-13 11:24 amWNW 8.0 18.1----30.02- 64.2 63.0----
2024-04-13 11:18 amWNW 8.9 18.1----30.03- 63.7 63.1----
2024-04-13 11:12 amWNW 9.9 17.1----30.03- 63.3 63.3----
2024-04-13 11:06 amWNW 12.0 17.1----30.03- 62.8 63.3----
2024-04-13 11:00 am NW 6.0 14.0----30.03- 64.0 63.3----
2024-04-13 10:54 amWNW 11.1 17.1----30.03- 63.1 63.1----
2024-04-13 10:48 am NW 8.0 15.0----30.03- 62.8 63.1----
2024-04-13 10:42 am NW 7.0 15.0----30.03- 63.0 63.0----
2024-04-13 10:36 amWNW 9.9 15.9----30.03- 62.8 63.0----
2024-04-13 10:30 amWNW 8.0 19.0----30.03- 63.0 62.8----
2024-04-13 10:24 amWNW 9.9 15.9----30.03- 62.8 62.8----
2024-04-13 10:18 amWNW 8.0 15.9----30.03- 62.6 62.6----
2024-04-13 10:12 am NW 8.0 19.0----30.03- 62.2 62.8----
2024-04-13 10:06 amWNW 12.0 17.1----30.03- 62.1 63.1----
2024-04-13 10:00 am NW 9.9 22.0----30.03+0.05 61.7 63.1----
2024-04-13 09:54 amWNW 12.0 20.0----30.03- 61.7 63.1----
2024-04-13 09:48 amWNW 9.9 15.9----30.03- 61.5 63.1----
2024-04-13 09:42 amWNW 11.1 15.9----30.02- 61.2 63.1----
2024-04-13 09:36 amWNW 11.1 15.9----30.02- 60.8 63.1----
2024-04-13 09:30 amWNW 8.9 15.9----30.02- 60.6 63.1----
2024-04-13 09:24 amWNW 11.1 15.0----30.02- 60.3 63.1----
2024-04-13 09:18 am NW 7.0 17.1----30.02- 60.1 63.1----
2024-04-13 09:12 amWNW 13.0 18.1----30.02- 59.5 63.1----
2024-04-13 09:06 am NW 9.9 15.0----30.01- 59.5 63.1----
2024-04-13 09:00 am NW 8.9 18.1----30.02+0.07- 63.3----
2024-04-13 08:54 am NW 9.9 18.1----30.02-- 63.3----
2024-04-13 08:48 am NW 8.0 17.1----30.02- 58.8 63.3----
2024-04-13 08:42 am NW 7.0 13.0----30.02- 58.6 63.3----
2024-04-13 08:36 amWNW 9.9 17.1----30.02- 58.3 63.3----
2024-04-13 08:30 amWNW 9.9 15.9----30.01- 57.7 63.3----
2024-04-13 08:24 am NW 7.0 14.0----30.01- 57.7 63.3----
2024-04-13 08:18 amWNW 8.9 14.0----30.01- 57.2 63.3----
2024-04-13 08:12 amWNW 8.9 14.0----30.01- 56.8 63.3----
2024-04-13 08:06 amWNW 8.0 15.0----30.01- 56.7 63.3----
2024-04-13 08:00 amWNW 11.1 17.1------- 63.3----
2024-04-13 07:54 amWNW 8.9 14.0------- 63.3----
2024-04-13 07:48 amWNW 9.9 15.9----30.00-- 63.3----
2024-04-13 07:42 amWNW 8.9 15.9----30.00-- 63.3----
2024-04-13 07:36 amWNW 9.9 15.0----30.00-- 63.3----
2024-04-13 07:30 amWNW 8.9 14.0----29.99-------
2024-04-13 07:24 amWNW 8.9 15.0----29.99-------
2024-04-13 07:18 am-------29.99- 55.0 63.1----
2024-04-13 07:12 am-------29.98- 54.9 63.3----
2024-04-13 07:06 am-------29.98- 54.7 63.3----
2024-04-13 07:00 amWNW 9.9 14.0----29.98+0.06 54.5 63.3----
2024-04-13 06:54 amWNW 9.9 14.0----29.98- 54.3 63.3----
2024-04-13 06:48 amWNW 9.9 15.9----29.98-- 63.5----
2024-04-13 06:42 amWNW 8.9 15.0----29.97-- 63.5----
2024-04-13 06:36 amWNW 9.9 15.9----29.97-- 63.5----
2024-04-13 06:30 amWNW 11.1 15.9----29.97- 54.3-----
2024-04-13 06:24 amWNW 8.9 15.0----29.96- 54.3-----
2024-04-13 06:18 am-------29.96- 54.3 63.7----
2024-04-13 06:12 am-------29.96- 54.7 63.7----
2024-04-13 06:06 am-------29.96- 54.5 63.7----
2024-04-13 06:00 amWNW 9.9 15.0----29.95+0.04- 63.7----
2024-04-13 05:54 amWNW 8.9 14.0----29.95-- 63.7----